User: anonymous   Login
Location: Unspecified
(0.0000°N, 0.0000°E)
Time: 05:38:02
(UTC+01:00)
Language:

Milstar 3 - Orbit

View from above orbital plane
View from above orbital plane
View from above satellite
View from above satellite

Ground track
Ground track

The orbit data is extracted from the following two-line orbital elements,

1 25724U 99023A   16291.00455966 0.00000000  00000-0  00000-0 0    00
2 25724  28.2236 148.1716 2132299  92.1045 267.8950  9.37449473    09
Epoch (UTC): 17 October 2016 00:06:33
Eccentricity: 0.2132299
inclination: 28.2236°
perigee height: 1097 km
apogee height: 5149 km
right ascension of ascending node: 148.1716°
argument of perigee: 92.1045°
revolutions per day: 9.37449473
mean anomaly at epoch: 267.8950°
orbit number at epoch: 0

The dashed part of the orbit path shows where the satellite is in the earth's shadow,  

DLR